Location: Sternwarte ZA, Rosenfeld-Brittheim
(48.2889°N, 8.6789°E)
Time: 22:01:41
(UTC+01:00)

ISS - Pass Details

Date: 26 February 2021
Orbit: 417 x 422 km, 51.6° (Epoch: 02 March)

Event Time Altitude Azimuth Distance (km) Brightness Sun altitude
Exits shadow 04:04:41 10° 90° (E) 1,482 -0.3 -31.4°
Drops below altitude 10° 04:04:48 10° 88° (E) 1,518 -0.2 -31.4°
Sets 04:07:09 0° 73° (ENE) 2,364 1.2 -31.0°
